Weather History for Winona, MN

Change the Weather History Date:

Saturday, November 30, 2013

  Actual Average Record
Temperature  
Mean Temperature 38 °F -  
Max Temperature 46 °F 38 °F 60 °F (1998)
Min Temperature 30 °F 25 °F 10 °F (2006)
Degree Days  
Heating Degree Days 27    
Moisture  
Dew Point 26 °F    
Average Humidity 68    
Maximum Humidity 87    
Minimum Humidity 50    
Precipitation  
Precipitation 0.00 in - - ()
Sea Level Pressure  
Sea Level Pressure 30.09 in    
Wind  
Wind Speed 4 mph (WNW)    
Max Wind Speed 9 mph    
Max Gust Speed -    
Visibility 10 miles    
Events      
Averages and records for this station are not official NWS values.
T = Trace of Precipitation, MM = Missing Value Source: NWS Daily Summary

Daily Weather History Graph

Daily Weather History Graph

Search for Another Location

Airport:

Trip Planner

Search our weather history database for the weather conditions in past years. The results will help you decide how hot, cold, wet, or windy it might be!

Date:

Astronomy

Nov. 30, 2013 Rise Set
Actual Time 7:20 AM CST 4:30 PM CST
Civil Twilight 6:48 AM CST 5:02 PM CST
Nautical Twilight 6:12 AM CST 5:38 PM CST
Astronomical Twilight 5:37 AM CST 6:13 PM CST
Moon 4:27 AM CST (11/30) 2:58 PM CST (11/30)
Length of Visible Light 10h 13m
Length of Day
9h 09m
Waning Crescent, 7% of the Moon is Illuminated
Nov 30
Waning Crescent
Dec 2
New
Dec 9
First Quarter
Dec 17
Full
Dec 25
Last Quarter

Hourly Weather History & Observations

Time (CST) Temp. Windchill Dew Point Humidity Pressure Visibility Wind Dir Wind Speed Gust Speed Precip Events Conditions
12:15 AM 32.0 °F 26.4 °F 21.2 °F 64% 30.22 in 10.0 mi SSW 5.8 mph - N/A   Scattered Clouds
12:36 AM 32.0 °F - 21.2 °F 64% 30.21 in 10.0 mi Calm Calm - N/A   Mostly Cloudy
12:56 AM 32.0 °F 27.5 °F 21.2 °F 64% 30.20 in 10.0 mi South 4.6 mph - N/A   Clear
1:15 AM 32.0 °F 26.4 °F 21.2 °F 64% 30.19 in 10.0 mi SSE 5.8 mph - N/A   Clear
1:36 AM 33.8 °F 28.6 °F 23.0 °F 65% 30.18 in 10.0 mi SSE 5.8 mph - N/A   Scattered Clouds
1:56 AM 33.8 °F 27.7 °F 23.0 °F 65% 30.17 in 10.0 mi South 6.9 mph - N/A   Overcast
2:15 AM 33.8 °F - 23.0 °F 65% 30.16 in 10.0 mi Calm Calm - N/A   Overcast
2:36 AM 33.8 °F 30.8 °F 23.0 °F 65% 30.15 in 10.0 mi South 3.5 mph - N/A   Overcast
2:56 AM 33.8 °F - 23.0 °F 65% 30.14 in 10.0 mi Calm Calm - N/A   Overcast
3:15 AM 33.8 °F 29.6 °F 23.0 °F 65% 30.13 in 10.0 mi South 4.6 mph - N/A   Overcast
3:36 AM 33.8 °F 29.6 °F 23.0 °F 65% 30.12 in 10.0 mi South 4.6 mph - N/A   Mostly Cloudy
3:56 AM 33.8 °F 27.7 °F 24.8 °F 70% 30.11 in 10.0 mi South 6.9 mph - N/A   Clear
4:15 AM 33.8 °F - 24.8 °F 70% 30.11 in 10.0 mi Calm Calm - N/A   Clear
4:36 AM 33.8 °F 28.6 °F 24.8 °F 70% 30.10 in 10.0 mi SSW 5.8 mph - N/A   Clear
4:55 AM 33.8 °F 30.8 °F 24.8 °F 70% 30.11 in 10.0 mi SW 3.5 mph - N/A   Clear
5:16 AM 33.8 °F - 24.8 °F 70% 30.11 in 10.0 mi Calm Calm - N/A   Clear
5:36 AM 33.8 °F 28.6 °F 26.6 °F 75% 30.09 in 10.0 mi South 5.8 mph - N/A   Clear
5:55 AM 33.8 °F - 26.6 °F 75% 30.09 in 10.0 mi Calm Calm - N/A   Clear
6:16 AM 32.0 °F - 23.0 °F 69% 30.09 in 10.0 mi Calm Calm - N/A   Clear
6:36 AM 32.0 °F - 23.0 °F 69% 30.09 in 10.0 mi Calm Calm - N/A   Clear
6:55 AM 32.0 °F - 23.0 °F 69% 30.09 in 10.0 mi Calm Calm - N/A   Clear
7:16 AM 32.0 °F 28.7 °F 23.0 °F 69% 30.09 in 10.0 mi South 3.5 mph - N/A   Clear
7:35 AM 30.2 °F - 23.0 °F 75% 30.08 in 10.0 mi Calm Calm - N/A   Clear
7:55 AM 30.2 °F - 23.0 °F 75% 30.09 in 10.0 mi Calm Calm - N/A   Clear
8:16 AM 33.8 °F - 26.6 °F 75% 30.09 in 10.0 mi Calm Calm - N/A   Clear
8:35 AM 33.8 °F 29.6 °F 26.6 °F 75% 30.09 in 10.0 mi SSW 4.6 mph - N/A   Clear
8:55 AM 33.8 °F - 24.8 °F 70% 30.08 in 10.0 mi Calm Calm - N/A   Clear
9:16 AM 33.8 °F - 24.8 °F 70% 30.07 in 10.0 mi Calm Calm - N/A   Clear
9:35 AM 35.6 °F - 26.6 °F 70% 30.07 in 10.0 mi Calm Calm - N/A   Clear
9:55 AM 35.6 °F - 26.6 °F 70% 30.07 in 10.0 mi Calm Calm - N/A   Clear
10:16 AM 35.6 °F 30.7 °F 26.6 °F 70% 30.07 in 10.0 mi WSW 5.8 mph - N/A   Clear
10:36 AM 37.4 °F 32.8 °F 26.6 °F 65% 30.07 in 10.0 mi WSW 5.8 mph - N/A   Clear
10:55 AM 37.4 °F 32.8 °F 26.6 °F 65% 30.06 in 10.0 mi SW 5.8 mph - N/A   Clear
11:16 AM 37.4 °F 33.8 °F 26.6 °F 65% 30.05 in 10.0 mi SW 4.6 mph - N/A   Clear
11:36 AM 41.0 °F 38.0 °F 26.6 °F 57% 30.05 in 10.0 mi West 4.6 mph - N/A   Clear
11:55 AM 41.0 °F 39.0 °F 26.6 °F 57% 30.04 in 10.0 mi WNW 3.5 mph - N/A   Clear
12:16 PM 41.0 °F 39.0 °F 28.4 °F 61% 30.03 in 10.0 mi West 3.5 mph - N/A   Clear
12:36 PM 42.8 °F - 28.4 °F 57% 30.03 in 10.0 mi Calm Calm - N/A   Clear
12:56 PM 42.8 °F 41.1 °F 28.4 °F 57% 30.02 in 10.0 mi West 3.5 mph - N/A   Clear
1:16 PM 42.8 °F 40.1 °F 28.4 °F 57% 30.02 in 10.0 mi West 4.6 mph - N/A   Clear
1:35 PM 42.8 °F - 28.4 °F 57% 30.02 in 10.0 mi Calm Calm - N/A   Clear
1:56 PM 42.8 °F 41.1 °F 28.4 °F 57% 30.02 in 10.0 mi West 3.5 mph - N/A   Clear
2:16 PM 46.4 °F 44.3 °F 30.2 °F 53% 30.02 in 10.0 mi NW 4.6 mph - N/A   Clear
2:35 PM 46.4 °F - 30.2 °F 53% 30.02 in 10.0 mi Calm Calm - N/A   Clear
2:56 PM 46.4 °F 44.3 °F 30.2 °F 53% 30.02 in 10.0 mi WNW 4.6 mph - N/A   Clear
3:16 PM 46.4 °F 45.2 °F 28.4 °F 50% 30.02 in 10.0 mi North 3.5 mph - N/A   Clear
3:36 PM 42.8 °F 41.1 °F 28.4 °F 57% 30.02 in 10.0 mi North 3.5 mph - N/A   Clear
3:56 PM 42.8 °F 39.3 °F 28.4 °F 57% 30.03 in 10.0 mi NNW 5.8 mph - N/A   Clear
4:15 PM 41.0 °F - 28.4 °F 61% 30.03 in 10.0 mi Calm Calm - N/A   Clear
4:36 PM 39.2 °F - 28.4 °F 65% 30.03 in 10.0 mi Calm Calm - N/A   Clear
4:56 PM 37.4 °F 33.8 °F 28.4 °F 70% 30.05 in 10.0 mi NW 4.6 mph - N/A   Clear
5:15 PM 37.4 °F 33.8 °F 28.4 °F 70% 30.05 in 10.0 mi NW 4.6 mph - N/A   Clear
5:36 PM 37.4 °F 30.8 °F 28.4 °F 70% 30.07 in 10.0 mi NW 9.2 mph - N/A   Mostly Cloudy
5:55 PM 35.6 °F 29.9 °F 28.4 °F 75% 30.07 in 10.0 mi NW 6.9 mph - N/A   Mostly Cloudy
6:16 PM 35.6 °F 28.6 °F 28.4 °F 75% 30.08 in 10.0 mi NNW 9.2 mph - N/A   Mostly Cloudy
6:36 PM 35.6 °F 29.2 °F 28.4 °F 75% 30.08 in 10.0 mi NNW 8.1 mph - N/A   Overcast
6:55 PM 35.6 °F 32.8 °F 28.4 °F 75% 30.08 in 10.0 mi NNW 3.5 mph - N/A   Overcast
7:16 PM 35.6 °F - 28.4 °F 75% 30.08 in 10.0 mi Calm Calm - N/A   Overcast
7:36 PM 35.6 °F 31.7 °F 28.4 °F 75% 30.09 in 10.0 mi NNW 4.6 mph - N/A   Overcast
7:55 PM 35.6 °F - 28.4 °F 75% 30.09 in 10.0 mi Calm Calm - N/A   Overcast
8:16 PM 35.6 °F - 28.4 °F 75% 30.09 in 10.0 mi Calm Calm - N/A   Overcast
8:36 PM 35.6 °F 32.8 °F 28.4 °F 75% 30.10 in 10.0 mi NNW 3.5 mph - N/A   Overcast
8:55 PM 35.6 °F 29.9 °F 28.4 °F 75% 30.10 in 10.0 mi NNW 6.9 mph - N/A   Overcast
9:16 PM 35.6 °F 29.2 °F 28.4 °F 75% 30.10 in 10.0 mi NW 8.1 mph - N/A   Overcast
9:36 PM 35.6 °F 30.7 °F 28.4 °F 75% 30.10 in 10.0 mi NNW 5.8 mph - N/A   Overcast
9:55 PM 35.6 °F 30.7 °F 28.4 °F 75% 30.11 in 10.0 mi NW 5.8 mph - N/A   Overcast
10:16 PM 33.8 °F 29.6 °F 28.4 °F 81% 30.11 in 10.0 mi NNW 4.6 mph - N/A   Overcast
10:36 PM 33.8 °F 28.6 °F 28.4 °F 81% 30.11 in 10.0 mi NNW 5.8 mph - N/A   Overcast
10:55 PM 33.8 °F 29.6 °F 28.4 °F 81% 30.12 in 10.0 mi NNW 4.6 mph - N/A   Scattered Clouds
11:16 PM 32.0 °F 27.5 °F 28.4 °F 87% 30.12 in 10.0 mi NW 4.6 mph - N/A   Clear
11:35 PM 30.2 °F 25.4 °F 26.6 °F 86% 30.12 in 10.0 mi NNW 4.6 mph - N/A   Clear
11:55 PM 30.2 °F 25.4 °F 26.6 °F 86% 30.13 in 10.0 mi NW 4.6 mph - N/A   Clear